TimeEST,TemperatureF,Dew PointF,Humidity,Sea Level PressureIn,VisibilityMPH,Wind Direction,Wind SpeedMPH,Gust SpeedMPH,PrecipitationIn,Events,Conditions,WindDirDegrees,DateUTC
12:53 AM,37.9,27.0,65,30.54,10.0,NE,6.9,-,N/A,,Clear,50,2013-11-30 05:53:00
1:53 AM,37.0,27.0,67,30.54,10.0,NE,8.1,-,N/A,,Clear,40,2013-11-30 06:53:00
2:53 AM,37.0,27.0,67,30.55,10.0,NE,8.1,-,N/A,,Clear,40,2013-11-30 07:53:00
3:53 AM,35.1,27.0,72,30.54,10.0,NE,8.1,-,N/A,,Clear,40,2013-11-30 08:53:00
4:53 AM,35.1,27.0,72,30.54,10.0,NE,9.2,-,N/A,,Clear,40,2013-11-30 09:53:00
5:53 AM,34.0,26.1,73,30.55,10.0,NE,9.2,-,N/A,,Clear,40,2013-11-30 10:53:00
6:53 AM,34.0,26.1,73,30.56,10.0,NNE,11.5,-,N/A,,Clear,30,2013-11-30 11:53:00
7:53 AM,35.1,26.1,70,30.57,10.0,NE,9.2,-,N/A,,Clear,40,2013-11-30 12:53:00
8:53 AM,37.9,27.0,65,30.58,10.0,NE,8.1,-,N/A,,Clear,40,2013-11-30 13:53:00
9:53 AM,43.0,30.0,60,30.57,10.0,NE,8.1,-,N/A,,Clear,40,2013-11-30 14:53:00
10:53 AM,45.0,30.0,56,30.54,10.0,NE,11.5,-,N/A,,Clear,40,2013-11-30 15:53:00
11:53 AM,48.9,32.0,52,30.52,10.0,NNE,11.5,-,N/A,,Clear,30,2013-11-30 16:53:00
12:53 PM,52.0,30.9,45,30.49,10.0,NE,9.2,-,N/A,,Partly Cloudy,50,2013-11-30 17:53:00
1:53 PM,54.0,32.0,43,30.45,10.0,ENE,6.9,-,N/A,,Scattered Clouds,60,2013-11-30 18:53:00
2:53 PM,53.1,32.0,45,30.43,10.0,NE,11.5,-,N/A,,Overcast,40,2013-11-30 19:53:00
3:53 PM,53.1,32.0,45,30.41,10.0,ENE,5.8,-,N/A,,Overcast,60,2013-11-30 20:53:00
4:53 PM,52.0,33.1,49,30.41,10.0,NE,5.8,-,N/A,,Overcast,50,2013-11-30 21:53:00
5:53 PM,51.1,34.0,52,30.41,10.0,ENE,5.8,-,N/A,,Overcast,60,2013-11-30 22:53:00
6:53 PM,50.0,34.0,54,30.40,10.0,NE,4.6,-,N/A,,Overcast,40,2013-11-30 23:53:00
7:53 PM,48.9,34.0,56,30.40,10.0,ENE,4.6,-,N/A,,Overcast,60,2013-12-01 00:53:00
8:53 PM,48.9,34.0,56,30.39,10.0,NE,5.8,-,N/A,,Mostly Cloudy,40,2013-12-01 01:53:00
9:53 PM,48.0,35.1,61,30.38,10.0,NNE,3.5,-,N/A,,Overcast,30,2013-12-01 02:53:00
10:53 PM,48.0,35.1,61,30.36,10.0,NNE,3.5,-,N/A,,Overcast,20,2013-12-01 03:53:00
11:53 PM,46.9,35.1,63,30.35,10.0,NNE,4.6,-,N/A,,Overcast,30,2013-12-01 04:53:00